Regional Weather Roundup
Issued by NWS

Home | Current Version | Previous Version | Text Only | Print | Product List | Glossary Off
Versions: 1 2 3 4 5 6 7 8 9 10 11 12 13 14 15 16 17 18 19 20 21 22 23 24 25 26 27 28 29 30 31 32 33 34 35 36 37 38 39 40 41 42 43 44 45 46 47 48 49 50

433
ASUS43 KTOP 101408
RWRKS

WEATHER ROUNDUP FOR KANSAS
NATIONAL WEATHER SERVICE GOODLAND KS
800 AM CST WED FEB 10 2016

NOTE:  "FAIR" INDICATES FEW OR NO CLOUDS BELOW 12,000 FEET WITH NO
SIGNIFICANT WEATHER AND/OR OBSTRUCTIONS TO VISIBILITY.

KSZ001>006-013>018-027>032-041>047-101500-
NORTHWEST KANSAS

CITY           SKY/WX    TMP DP  RH WIND       PRES   REMARKS
GOODLAND       CLOUDY    35  19  52 W13       30.07S WCI  26
HAYS           CLEAR     34  19  55 W12       30.02F WCI  25
HILL CITY      CLEAR     35  25  66 W12       30.01F WCI  27
RUSSELL        CLEAR     30  26  85 SW9       30.01F
$$

KSZ061>065-074>080-084>089-101500-
SOUTHWEST KANSAS

CITY           SKY/WX    TMP DP  RH WIND       PRES   REMARKS
DODGE CITY     CLEAR     36  23  59 W20       30.09F WCI  25
ELKHART          N/A     37  19  48 W13         N/A  WCI  29
GARDEN CITY    CLEAR     29  23  78 W10       30.09F WCI  20
GREAT BEND     CLEAR     27  18  69 SW7       30.06S
LIBERAL        CLOUDY    30  19  64 W9        30.13S
PRATT          CLEAR     25  20  84 W7        30.07F
$$

KSZ066>073-081>083-090>101-101500-
SOUTHEAST KANSAS

CITY           SKY/WX    TMP DP  RH WIND       PRES   REMARKS
CHANUTE        CLEAR     24  13  62 S16       30.16F WCI  11
COFFEYVILLE    CLEAR     23  15  71 S9        30.23F
HUTCHINSON     CLEAR     27  19  72 S9        30.10F
MEDICINE LODGE   N/A     24  19  81 S5        30.11F
NEWTON         CLEAR     25  14  63 S13       30.11S WCI  13
PARSONS        CLEAR     23  14  68 S7        30.22F
WICHITA INTL   CLEAR     25  15  66 S10       30.13F WCI  15
WICHITA JABRA  CLEAR     24  14  65 S9        30.13F
WICHITA MCCONL CLEAR     25  13  60 S12       30.14F WCI  14
WINFIELD       CLEAR     26  13  57 S13       30.16F WCI  15
$$

KSZ007>012-019>026-033>040-048>060-102>105-101500-
NORTHEAST KANSAS

CITY           SKY/WX    TMP DP  RH WIND       PRES   REMARKS
CONCORDIA      CLEAR     27  20  75 SW15      29.99F WCI  15
EMPORIA        CLEAR     25  11  55 S22       30.08F WCI  10
LAWRENCE       PTCLDY    24  15  68 S7        30.13F
MANHATTAN      CLEAR     28  15  58 SW13      30.06F WCI  17
MARYSVILLE     CLEAR     27  16  63 S10       30.01F WCI  17
OLATHE IND     CLOUDY    24  14  65 S10       30.14F WCI  14
OLATHE EXE     CLOUDY    23  14  68 S7        30.13F
SALINA         CLEAR     29  20  69 S15       30.06F WCI  18
TOPEKA BILLARD CLEAR     25  14  63 S5        30.11F
TOPEKA FORBES  CLEAR     25  15  66 SE6       30.10F
$$




USA.gov is the U.S. government's official web portal to all federal, state and local government web resources and services.